Temp
12 12 12 13 13 12 12 12 12 11 11 11 11 11 11 11 11 10 10 9 9 9
11 11 12 12 12 12 12 11 11 11 11 11 11 11 11 10 10 10 9 9 9 9
11 11 11 11 12 12 11 11 11 11 11 11 10 10 10 10 9 9 9 9 8 8
11 11 11 12 12 11 11 11 12 11 11 10 10 10 9 9 9 9 9 8 8 8
10 10 11 12 11 11 11 11 11 11 10 10 9 9 9 9 9 8 8 8 8 8
11 11 11 11 11 11 11 11 10 10 9 9 9 9 8 8 8 8 8 8 7 7
12 11 11 11 11 11 10 10 9 9 9 9 9 8 8 8 8 7 7 7 7 7
12 11 11 10 10 10 10 9 9 9 8 8 8 8 8 8 7 7 7 6 6 6
11 11 10 10 10 10 9 9 9 9 8 8 8 8 8 7 7 6 6 6 6 6
11 11 10 10 10 9 9 9 8 8 8 8 7 7 7 6 6 6 6 5 5 5
10 10 10 9 9 9 8 8 8 8 7 7 7 7 6 6 5 5 5 5 5 4
10 9 9 9 8 8 8 8 8 7 7 6 6 6 5 5 5 5 5 5 4 4
9 9 9 8 8 8 8 7 7 6 6 6 6 5 5 5 4 4 4 4 4 4
9 9 8 8 7 7 7 6 6 6 5 5 5 5 5 4 4 4 3 3 3 3
Height
805 807 810 812 816 817 815 817 823 825 826 828 832 830 831 830 830 830 832 835 834 835
803 806 809 809 812 810 810 812 820 825 826 826 829 829 827 826 827 828 832 833 832 833
799 802 805 808 806 805 809 809 813 818 822 822 824 827 825 823 826 828 830 830 830 830
793 797 798 797 801 802 806 806 809 813 819 822 820 821 823 824 825 824 825 826 828 828
791 793 795 796 796 802 803 804 808 812 815 816 816 818 821 823 822 823 823 824 824 824
785 789 791 795 794 798 800 804 807 809 812 813 814 818 819 819 820 820 820 820 820 821
782 786 790 791 793 794 799 802 802 805 807 809 811 815 815 817 816 816 818 817 817 817
780 784 787 789 790 792 795 800 801 803 805 807 808 810 812 813 812 814 814 815 814 814
779 783 785 787 787 791 795 797 799 799 801 804 807 808 808 810 810 812 811 811 811 811
779 781 783 785 787 790 792 795 796 798 800 802 804 805 806 806 807 808 808 808 808 808
779 780 782 784 786 789 791 792 793 795 797 798 799 801 802 803 803 804 804 804 805 805
778 779 780 782 784 786 788 789 790 792 794 796 798 799 799 800 799 799 800 800 801 800
775 777 778 780 782 784 785 787 790 792 793 794 795 796 796 796 797 796 796 797 796 796
774 776 778 779 781 783 785 787 788 789 791 792 792 793 793 793 793 794 793 792 791 791
Wind_Speed
24 22 24 24 21 17 10 6 8 12 13 15 14 12 10 8 8 7 8 9 8 8
23 19 17 18 17 12 9 9 11 14 15 15 16 13 11 9 7 7 8 8 6 7
29 25 23 19 16 14 14 12 13 17 20 17 15 12 10 8 7 8 8 7 8 9
29 28 26 23 19 15 17 17 20 18 19 16 13 10 9 9 9 9 9 9 10 10
25 24 21 19 20 22 21 19 18 17 16 14 11 10 11 10 9 10 10 9 10 11
21 22 23 24 19 19 18 18 17 15 14 12 12 13 12 11 11 11 11 11 12 12
19 21 21 20 19 17 17 16 15 15 14 14 13 13 11 12 11 10 12 12 13 13
19 19 18 18 18 17 16 16 14 13 13 12 12 12 12 12 12 13 13 14 14 14
16 17 17 16 17 15 15 14 14 12 11 12 14 13 12 13 14 14 14 14 13 14
15 16 15 15 15 15 15 14 14 14 14 15 15 14 14 13 14 15 15 14 13 13
17 17 16 16 16 16 16 16 16 15 14 14 13 12 13 13 14 14 14 12 13 15
16 16 16 17 17 16 15 14 13 12 13 14 13 12 12 13 13 13 14 13 14 15
13 13 14 13 12 11 11 11 12 11 10 10 11 10 11 12 13 14 15 16 17 17
10 10 9 9 10 9 10 8 6 6 8 9 9 10 10 11 13 16 17 20 22 21
Wind_Direction
191 186 187 183 188 188 197 233 248 250 241 233 235 231 232 237 235 235 241 245 246 252
208 211 208 205 207 204 199 202 234 250 247 234 234 236 226 223 230 236 245 250 257 258
214 214 208 202 198 194 208 219 229 228 227 225 224 231 233 227 227 229 243 250 246 251
217 220 216 212 218 212 210 213 216 222 224 224 223 227 235 228 224 228 235 239 250 256
220 222 225 222 212 221 220 217 224 217 216 217 220 224 229 229 229 237 245 246 251 261
218 222 217 219 213 211 214 214 212 210 213 213 216 222 226 232 234 242 252 255 254 261
210 211 212 209 206 206 209 210 203 207 211 212 214 221 228 235 244 252 256 258 259 262
205 210 208 206 200 195 201 204 206 202 206 210 221 234 238 244 251 254 254 254 256 259
197 197 202 197 189 196 199 203 205 209 216 221 233 239 245 246 248 252 253 257 258 265
198 196 195 191 198 205 205 208 211 213 221 229 235 239 245 249 256 256 257 260 263 265
195 196 195 197 200 203 205 209 212 217 224 234 243 248 251 252 261 261 262 262 268 276
203 201 200 201 203 206 208 214 223 230 233 238 244 249 257 258 264 268 270 273 276 280
216 211 209 211 213 219 226 229 226 229 239 256 267 263 263 263 270 277 277 278 279 279
214 212 215 214 214 216 208 207 231 247 253 267 277 280 276 274 270 273 282 287 288 286